Regional Weather Roundup
Issued by NWS State College, PA

Home | Current Version | Previous Version | Graphics & Text | Print | Product List | Glossary On
Versions: 1 2 3 4 5 6 7 8 9 10 11 12 13 14 15 16 17 18 19 20 21 22 23 24 25 26 27 28 29 30 31 32 33 34 35 36 37 38 39 40 41 42 43 44 45 46 47 48 49 50
000
ASUS41 KCTP 251710
RWRCTP

REGIONAL WEATHER ROUNDUP
NATIONAL WEATHER SERVICE STATE COLLEGE PA
1200 PM EST TUE NOV 25 2014

Note: "fair" indicates few or no clouds below 12,000 feet with no
significant weather and/or obstructions to visibility.

* = STATION THAT DOES NOT REPORT PRECIPITATION /E.G. RAIN...SNOW...ETC/
    THUNDER OR FOG.

PAZ002>004-007>009-013>016-020>023-029>032-251800-
WESTERN PENNSYLVANIA

CITY           SKY/WX    TMP DP  RH WIND       PRES   REMARKS
ERIE           CLOUDY    40  26  57 SW10      29.98R
MEADVILLE      CLOUDY    38  26  62 SW16G23   29.97F
FRANKLIN*      CLOUDY    41  27  56 SW13G24   29.99F
NEW CASTLE       N/A     42  28  58 SW17G29   30.03F
BEAVER COUNTY  PTSUNNY   43  28  56 SW15G25   30.01F
BUTLER*        PTSUNNY   43  28  56 SW15G23   30.03F
PITTSBURGH INT PTSUNNY   45  29  53 SW16G23   30.02F
PITTSBURGH     PTSUNNY   46  27  47 W16       30.01F
INDIANA*       CLOUDY    43  30  61 W22       30.05F
LATROBE        PTSUNNY   45  32  61 SW17G29   30.05F
WASHINGTON CO* PTSUNNY   46  30  53 SW16G25   30.05F
$$

PAZ004>006-010>012-017>019-024>028-033>037-041-042-045-046-049>053-251800-
CENTRAL PENNSYLVANIA

CITY           SKY/WX    TMP DP  RH WIND       PRES   REMARKS
BRADFORD         N/A    N/A N/A N/A SW14G24   29.94S
DUBOIS         PTSUNNY   43  27  53 SW23G31   29.96F
CLEARFIELD     PTSUNNY   43  28  55 SW18G31   29.99F
JOHNSTOWN      CLOUDY    41  26  55 W15G32    29.99F
ALTOONA        CLOUDY    46  29  51 W15       30.02F
STATE COLLEGE  MOSUNNY   46  28  49 W17G23    30.01F
WILLIAMSPORT   PTSUNNY   51  28  41 W15G23    30.01S
SELINSGROVE    CLOUDY    51  29  42 W8G17     30.04S
FT INDIANTOWN  CLOUDY    51  28  39 W17G24    30.03F
CAPITAL CITY   CLOUDY    52  28  39 W15G22    30.05F
HARRISBURG     CLOUDY    51  28  41 W12G18    30.04
YORK           CLOUDY    52  28  39 W10G18    30.05F
$$

PAZ038>040-043-044-047-048-054-055-060>062-067>071-251800-
EASTERN PENNSYLVANIA

CITY           SKY/WX    TMP DP  RH WIND       PRES   REMARKS
SCRANTON       CLOUDY    48  27  44 SW15G22   29.99S
MOUNT POCONO   CLOUDY    44  26  49 W9G23     29.96F
ALLENTOWN      CLOUDY    52  29  41 W12       30.02F
QUAKERTOWN*    CLOUDY    50  30  46 W9        30.03F
READING        CLOUDY    53  30  41 W12       30.03F
LANCASTER      CLOUDY    51  30  44 W12       30.04F
COATESVILLE    CLOUDY    50  32  50 W12G18    30.04S
POTTSTOWN      CLOUDY    51  30  44 W10G16    30.04F
BLUE BELL      CLOUDY    54  32  43 W7        30.03S
DOYLESTOWN     CLOUDY    50  28  42 W10G22    30.02F
WILLOW GROVE   NOT AVBL
NORTH PHILA    CLOUDY    55  29  36 NW13      30.05S
PHILADELPHIA   CLOUDY    56  30  37 NW10G18   30.05S
$$



USA.gov is the U.S. government's official web portal to all federal, state and local government web resources and services.